Location: Burzi?i
(45.0869°N, 16.0577°E)
Time: 03:37:50
(UTC+00:00)

CZ-2C R/B - Pass Details

Date: 29 October 2020
Orbit: 703 x 909 km, 98.1° (Epoch: 01 December)

Event Time Altitude Azimuth Distance (km) Brightness Sun altitude
Rises 17:34:07 0° 165° (SSE) 3,521 6.3 -19.3°
Reaches altitude 10° 17:36:33 10° 165° (SSE) 2,576 5.6 -19.7°
Maximum altitude 17:42:20 90° 249° (WSW) 893 3.2 -20.8°
Drops below altitude 10° 17:47:58 10° 347° (NNW) 2,507 5.8 -21.8°
Sets 17:50:19 0° 347° (NNW) 3,420 6.6 -22.2°
